GW2622 Weather Reports


time (UTC)temp
C
wind
direction
speed
KPH
gust
KPH
rain 1hr
cm
rain 24hr
cm
rain mn
cm
humidity
%
barometer
mb
20260831033947 26 186 9.7 14.5 0.00 0.00 0.00 82 1011.0
20260831033442 26 191 4.8 8.0 0.00 0.00 0.00 83 1010.8
20260831032937 26 176 4.8 8.0 0.00 0.00 0.00 83 1010.8
20260831032432 26 184 6.4 11.3 0.00 0.00 0.00 82 1011.0
20260831031927 26 172 8.0 9.7 0.00 0.00 0.00 82 1011.0
20260831031427 26 146 4.8 8.0 0.00 0.00 0.00 83 1011.0
20260831030921 26 225 4.8 8.0 0.00 0.00 0.00 84 1010.7
20260831030420 26 205 4.8 9.7 0.00 0.00 0.00 84 1011.0
20260831025919 26 179 4.8 4.8 0.00 0.00 0.00 84 1010.9
20260831025418 26 188 3.2 4.8 0.00 0.00 0.00 84 1010.9
20260831024914 26 162 6.4 8.0 0.00 0.00 0.00 84 1011.1
20260831024413 26 178 4.8 8.0 0.00 0.00 0.00 84 1010.9
20260831023913 26 164 6.4 8.0 0.00 0.00 0.00 84 1010.9
20260831023411 26 180 4.8 8.0 0.00 0.00 0.00 84 1011.0
20260831022907 27 168 4.8 8.0 0.00 0.00 0.00 83 1011.0
20260831022405 27 185 4.8 8.0 0.00 0.00 0.00 82 1010.9
20260831021900 27 172 4.8 4.8 0.00 0.00 0.00 82 1011.0
20260831021400 27 167 4.8 9.7 0.00 0.00 0.00 82 1011.1
20260831020856 27 155 6.4 8.0 0.00 0.00 0.00 82 1010.9
20260831020355 27 158 3.2 8.0 0.00 0.00 0.00 83 1011.0
20260831015851 27 186 4.8 9.7 0.00 0.00 0.00 83 1011.0
20260831015346 27 171 4.8 4.8 0.00 0.00 0.00 82 1011.1
20260831014846 27 183 3.2 4.8 0.00 0.00 0.00 82 1010.9
20260831014341 27 167 4.8 4.8 0.00 0.00 0.00 82 1010.9
20260831013837 27 190 3.2 8.0 0.00 0.00 0.00 82 1010.9
20260831013332 27 203 1.6 4.8 0.00 0.00 0.00 81 1010.8
20260831012826 27 188 4.8 4.8 0.00 0.00 0.00 81 1010.8
20260831012322 28 191 4.8 4.8 0.00 0.00 0.00 81 1010.7
20260831011821 28 186 4.8 4.8 0.00 0.00 0.00 81 1010.7
20260831011316 28 189 4.8 8.0 0.00 0.00 0.00 81 1010.8
20260831010812 28 211 3.2 4.8 0.00 0.00 0.00 81 1010.6
20260831010307 28 206 3.2 4.8 0.00 0.00 0.00 81 1010.6
20260831005803 28 225 3.2 3.2 0.00 0.00 0.00 81 1010.6
20260831005258 28 219 3.2 3.2 0.00 0.00 0.00 81 1010.6
20260831004752 28 250 3.2 3.2 0.00 0.00 0.00 81 1010.7
20260831004248 28 267 1.6 1.6 0.00 0.00 0.00 82 1010.5
20260831003744 28 259 1.6 3.2 0.00 0.00 0.00 81 1010.6
20260831003240 29 274 0.0 0.0 0.00 0.00 0.00 81 1010.5
20260831002739 29 238 3.2 4.8 0.00 0.00 0.00 80 1010.4
20260831002238 29 249 1.6 3.2 0.00 0.00 0.00 80 1010.4
20260831001735 29 195 3.2 3.2 0.00 0.00 0.00 79 1010.5
20260831001229 30 186 3.2 3.2 0.00 0.00 0.00 79 1010.4
20260831000726 30 233 1.6 3.2 0.00 0.00 0.00 79 1010.4
20260831000221 30 254 3.2 3.2 0.00 0.00 0.00 78 1010.2
20260830235720 30 184 4.8 8.0 0.00 0.00 0.00 78 1010.0
20260830235215 30 189 3.2 4.8 0.00 0.00 0.00 77 1010.2
20260830234710 30 253 3.2 8.0 0.00 0.00 0.00 76 1010.3
20260830234206 30 181 4.8 8.0 0.00 0.00 0.00 77 1009.9
20260830233701 30 161 9.7 11.3 0.00 0.00 0.00 77 1009.8
20260830233157 31 246 1.6 8.0 0.00 0.00 0.00 78 1009.9
20260830232652 31 192 4.8 8.0 0.00 0.00 0.00 77 1010.0
20260830232148 31 219 4.8 11.3 0.00 0.00 0.00 76 1009.8
20260830231645 31 182 9.7 11.3 0.00 0.00 0.00 76 1009.8
20260830231144 31 169 6.4 9.7 0.00 0.00 0.00 76 1009.9
20260830230639 31 216 8.0 9.7 0.00 0.00 0.00 76 1009.8
20260830230139 31 195 6.4 9.7 0.00 0.00 0.00 77 1009.8
20260830225634 31 182 8.0 11.3 0.00 0.00 0.00 78 1009.9
20260830225128 31 182 6.4 8.0 0.00 0.00 0.00 79 1009.9
20260830224627 31 202 8.0 9.7 0.00 0.00 0.00 78 1010.0
20260830224123 31 171 4.8 4.8 0.00 0.00 0.00 77 1009.9
20260830223620 31 215 4.8 8.0 0.00 0.00 0.00 78 1009.9
20260830223114 30 172 3.2 8.0 0.00 0.00 0.00 81 1010.0
20260830222609 30 159 4.8 11.3 0.00 0.00 0.00 81 1010.0
20260830222105 30 228 6.4 9.7 0.00 0.00 0.00 81 1009.9
20260830221600 30 199 6.4 8.0 0.00 0.00 0.00 81 1009.8
20260830221056 29 152 6.4 9.7 0.00 0.00 0.00 82 1009.7
20260830220551 29 179 4.8 8.0 0.00 0.00 0.00 83 1009.7
20260830220049 29 203 4.8 12.9 0.00 0.00 0.00 82 1009.8
20260830215544 29 170 4.8 12.9 0.00 0.00 0.00 82 1009.7
20260830215038 29 182 4.8 11.3 0.00 0.00 0.00 81 1009.9
20260830214533 29 187 4.8 17.7 0.00 0.00 0.00 80 1009.6
20260830214028 29 168 4.8 14.5 0.00 0.00 0.00 80 1010.3
20260830213527 29 186 4.8 11.3 0.00 0.00 0.00 79 1010.0
20260830213023 29 111 8.0 12.9 0.00 0.00 0.00 80 1010.0
20260830212518 28 182 1.6 8.0 0.00 0.00 0.00 80 1010.3
20260830212013 28 186 6.4 12.9 0.00 0.00 0.00 79 1010.4
20260830211508 29 158 6.4 11.3 0.00 0.00 0.00 79 1010.5
20260830211003 28 169 8.0 14.5 0.00 0.00 0.00 78 1010.4
20260830210503 28 214 8.0 12.9 0.00 0.00 0.00 78 1010.2
20260830210002 28 174 8.0 12.9 0.00 0.00 0.00 77 1010.5
20260830205500 29 112 8.0 11.3 0.00 0.00 0.00 77 1010.5
20260830204955 29 174 8.0 11.3 0.00 0.00 0.00 77 1010.8
20260830204454 29 210 4.8 9.7 0.00 0.00 0.00 77 1010.7
20260830203949 29 202 6.4 14.5 0.00 0.00 0.00 76 1010.6
20260830203446 29 184 8.0 12.9 0.00 0.00 0.00 76 1010.6
20260830202944 29 140 4.8 8.0 0.00 0.00 0.00 77 1010.7
20260830202440 29 194 3.2 4.8 0.00 0.00 0.00 76 1010.8
20260830201936 28 165 4.8 12.9 0.00 0.00 0.00 75 1010.9
20260830201429 28 241 6.4 12.9 0.00 0.00 0.00 75 1010.8
20260830200925 29 239 1.6 8.0 0.00 0.00 0.00 75 1010.9
20260830200420 29 195 6.4 9.7 0.00 0.00 0.00 74 1010.9
20260830195914 28 143 6.4 11.3 0.00 0.00 0.00 75 1011.2
20260830195415 28 217 8.0 12.9 0.00 0.00 0.00 74 1011.0
20260830194913 29 190 8.0 12.9 0.00 0.00 0.00 73 1011.3
20260830194412 29 223 6.4 8.0 0.00 0.00 0.00 75 1011.2
20260830193912 28 190 6.4 11.3 0.00 0.00 0.00 75 1011.4
20260830193411 28 186 3.2 9.7 0.00 0.00 0.00 76 1011.4
20260830192907 28 176 8.0 12.9 0.00 0.00 0.00 75 1011.2
20260830192403 28 176 4.8 8.0 0.00 0.00 0.00 78 1011.2
20260830191858 27 195 6.4 11.3 0.00 0.00 0.00 78 1011.5
20260830191357 27 156 6.4 11.3 0.00 0.00 0.00 76 1011.6
20260830190853 28 190 8.0 11.3 0.00 0.00 0.00 76 1011.7
20260830190348 28 229 8.0 11.3 0.00 0.00 0.00 74 1011.6
20260830185846 27 204 8.0 12.9 0.00 0.00 0.00 76 1011.6
20260830185342 27 187 4.8 9.7 0.00 0.00 0.00 78 1011.6
20260830184837 27 212 8.0 9.7 0.00 0.00 0.00 77 1011.6
20260830184336 27 176 4.8 8.0 0.00 0.00 0.00 76 1011.6
20260830183831 27 254 8.0 11.3 0.00 0.00 0.00 77 1011.5
20260830183330 27 235 4.8 8.0 0.00 0.00 0.00 78 1011.7
20260830182826 27 204 4.8 9.7 0.00 0.00 0.00 78 1011.7
20260830182322 26 233 4.8 9.7 0.00 0.00 0.00 78 1011.7
20260830181818 26 241 4.8 8.0 0.00 0.00 0.00 77 1011.7
20260830181313 26 247 3.2 9.7 0.00 0.00 0.00 78 1012.1
20260830180807 26 193 6.4 11.3 0.00 0.00 0.00 77 1011.9
20260830180302 26 254 3.2 11.3 0.00 0.00 0.00 78 1011.9
20260830175800 26 154 9.7 14.5 0.00 0.00 0.00 76 1011.9
20260830175256 26 183 6.4 9.7 0.00 0.00 0.00 77 1012.0
20260830174756 26 225 4.8 8.0 0.00 0.00 0.00 77 1012.2
20260830174252 26 223 11.3 12.9 0.00 0.00 0.00 76 1012.1
20260830173751 26 206 6.4 9.7 0.00 0.00 0.00 78 1012.0
20260830173246 26 228 4.8 9.7 0.00 0.00 0.00 80 1012.3
20260830172743 26 218 6.4 12.9 0.00 0.00 0.00 79 1012.1
20260830172240 26 208 4.8 8.0 0.00 0.00 0.00 79 1012.1
20260830171735 27 171 3.2 4.8 0.00 0.00 0.00 78 1012.2
20260830171230 26 211 6.4 12.9 0.00 0.00 0.00 79 1012.2
20260830170725 26 243 1.6 4.8 0.00 0.00 0.00 79 1012.4
20260830170224 26 247 3.2 8.0 0.00 0.00 0.00 79 1012.5
20260830165723 26 160 4.8 4.8 0.00 0.00 0.00 78 1012.6
20260830165219 26 268 1.6 4.8 0.00 0.00 0.00 80 1012.4
20260830164715 26 292 0.0 4.8 0.00 0.00 0.00 82 1012.4
20260830164211 25 268 1.6 3.2 0.00 0.00 0.00 81 1012.7
20260830163707 25 262 1.6 3.2 0.00 0.00 0.00 84 1012.7
20260830163203 25 270 1.6 1.6 0.00 0.00 0.00 82 1012.9
20260830162657 25 333 0.0 0.0 0.00 0.00 0.00 85 1012.8
20260830162153 24 306 0.0 1.6 0.00 0.00 0.00 85 1012.8
20260830161648 24 305 1.6 1.6 0.00 0.00 0.00 89 1012.9
20260830161142 23 305 0.0 0.0 0.00 0.00 0.00 88 1012.8
20260830160639 23 304 1.6 1.6 0.00 0.00 0.00 88 1012.8
20260830160139 23 291 0.0 3.2 0.00 0.00 0.00 88 1012.6
20260830155636 23 265 3.2 3.2 0.00 0.00 0.00 86 1012.7
20260830155131 24 226 6.4 9.7 0.00 0.00 0.00 85 1012.5
20260830154626 24 172 8.0 9.7 0.00 0.00 0.00 84 1012.4
20260830154122 24 198 6.4 9.7 0.00 0.00 0.00 85 1012.3
20260830153618 24 197 8.0 12.9 0.00 0.00 0.00 84 1012.2
20260830153118 24 209 6.4 8.0 0.00 0.00 0.00 86 1012.4
20260830152617 24 199 8.0 9.7 0.00 0.00 0.00 85 1012.1
20260830152116 23 223 6.4 8.0 0.00 0.00 0.00 84 1012.0
20260830151611 23 220 6.4 8.0 0.00 0.00 0.00 85 1012.1
20260830151106 23 225 8.0 11.3 0.00 0.00 0.00 85 1011.8
20260830150601 23 210 8.0 14.5 0.00 0.00 0.00 85 1011.9
20260830150055 23 229 9.7 12.9 0.00 0.00 0.00 84 1012.0
20260830145555 23 204 6.4 9.7 0.00 0.00 0.00 85 1011.9
20260830145050 23 222 6.4 8.0 0.00 0.00 0.00 85 1011.9
20260830144546 23 192 6.4 9.7 0.00 0.00 0.00 85 1012.1
20260830144042 23 215 6.4 11.3 0.00 0.00 0.00 84 1011.8
20260830143538 23 202 9.7 12.9 0.00 0.00 0.00 83 1011.7
20260830143035 23 240 8.0 11.3 0.00 0.00 0.00 82 1011.7
20260830142531 23 210 11.3 14.5 0.00 0.00 0.00 81 1011.9
20260830142026 23 217 8.0 14.5 0.00 0.00 0.00 81 1011.8
20260830141521 24 216 8.0 12.9 0.00 0.00 0.00 81 1011.7
20260830141016 24 246 3.2 14.5 0.00 0.00 0.00 81 1011.8
20260830140516 24 231 11.3 17.7 0.00 0.00 0.00 79 1011.7
20260830140012 24 229 8.0 14.5 0.00 0.00 0.00 80 1011.6
20260830135506 24 241 9.7 16.1 0.00 0.00 0.00 80 1011.9
20260830135001 23 208 11.3 16.1 0.00 0.00 0.00 79 1011.6
20260830134456 23 203 8.0 12.9 0.00 0.00 0.00 79 1011.5
20260830133946 24 269 8.0 12.9 0.00 0.00 0.00 79 1011.5
20260830133442 24 141 11.3 16.1 0.00 0.00 0.00 79 1011.2
20260830132937 24 189 6.4 14.5 0.00 0.00 0.00 79 1011.2
20260830132433 25 220 9.7 17.7 0.00 0.00 0.00 77 1011.1
20260830131931 25 209 11.3 14.5 0.00 0.00 0.00 74 1011.1
20260830131426 25 199 14.5 17.7 0.00 0.00 0.00 71 1011.3
20260830130920 25 216 9.7 16.1 0.00 0.00 0.00 71 1011.2
20260830130416 25 222 14.5 22.5 0.00 0.00 0.00 70 1011.4
20260830125915 26 205 9.7 16.1 0.00 0.00 0.00 71 1011.4
20260830125411 26 208 12.9 20.9 0.00 0.00 0.00 71 1011.2
20260830124908 25 239 12.9 20.9 0.00 0.00 0.00 70 1011.3
20260830124403 25 207 12.9 25.7 0.00 0.00 0.00 72 1011.1
20260830123900 25 216 12.9 24.1 0.00 0.00 0.00 71 1011.4
20260830123356 25 287 14.5 22.5 0.00 0.00 0.00 71 1011.4
20260830122854 25 260 12.9 20.9 0.00 0.00 0.00 71 1011.4
20260830122348 25 216 16.1 20.9 0.00 0.00 0.00 71 1011.3
20260830121844 25 214 8.0 16.1 0.00 0.00 0.00 71 1011.4
20260830121344 25 192 12.9 16.1 0.00 0.00 0.00 71 1011.4
20260830120839 25 219 14.5 17.7 0.00 0.00 0.00 71 1011.3
20260830120334 25 226 12.9 17.7 0.00 0.00 0.00 70 1011.3
20260830115831 25 201 9.7 14.5 0.00 0.00 0.00 71 1011.3
20260830115327 25 183 11.3 17.7 0.00 0.00 0.00 70 1011.3
20260830114822 25 231 11.3 14.5 0.00 0.00 0.00 70 1011.1
20260830114318 25 219 6.4 14.5 0.00 0.00 0.00 71 1011.3
20260830113812 25 210 12.9 20.9 0.00 0.00 0.00 69 1011.3
20260830113308 25 194 8.0 20.9 0.00 0.00 0.00 71 1010.9
20260830112804 25 211 17.7 22.5 0.00 0.00 0.00 70 1010.9
20260830112259 25 220 9.7 20.9 0.00 0.00 0.00 71 1010.8
20260830111755 25 194 12.9 22.5 0.00 0.00 0.00 70 1010.9
20260830111250 25 215 11.3 20.9 0.00 0.00 0.00 70 1010.9
20260830110750 25 211 11.3 25.7 0.00 0.00 0.00 70 1011.0
20260830110247 25 195 14.5 27.4 0.00 0.00 0.00 70 1010.9
20260830105745 25 201 11.3 17.7 0.00 0.00 0.00 72 1011.0
20260830105241 25 218 12.9 20.9 0.00 0.00 0.00 71 1011.1
20260830104738 25 211 14.5 20.9 0.00 0.00 0.00 71 1011.0
20260830104235 25 221 14.5 20.9 0.00 0.00 0.00 71 1010.9
20260830103734 25 211 11.3 22.5 0.00 0.00 0.00 71 1011.0
20260830103230 25 210 11.3 17.7 0.00 0.00 0.00 72 1011.0
20260830102727 25 199 14.5 24.1 0.00 0.00 0.00 72 1011.2
20260830102224 25 221 17.7 22.5 0.00 0.00 0.00 72 1011.0
20260830101719 25 212 16.1 22.5 0.00 0.00 0.00 72 1011.2
20260830101214 25 173 11.3 25.7 0.00 0.00 0.00 73 1011.1
20260830100708 25 209 11.3 16.1 0.00 0.00 0.00 72 1011.0
20260830100203 25 228 12.9 17.7 0.00 0.00 0.00 72 1011.1
20260830095701 25 230 12.9 22.5 0.00 0.00 0.00 72 1011.2
20260830095157 25 208 11.3 17.7 0.00 0.00 0.00 72 1011.1
20260830094653 25 212 8.0 20.9 0.00 0.00 0.00 72 1011.2
20260830094143 25 186 17.7 22.5 0.00 0.00 0.00 72 1011.1
20260830093638 25 204 9.7 16.1 0.00 0.00 0.00 73 1011.3
20260830093135 25 180 9.7 20.9 0.00 0.00 0.00 73 1011.3
20260830092629 25 230 14.5 16.1 0.00 0.00 0.00 73 1011.2
20260830092127 25 214 9.7 17.7 0.00 0.00 0.00 74 1011.3
20260830091621 25 218 8.0 14.5 0.00 0.00 0.00 75 1011.1
20260830091119 25 174 11.3 14.5 0.00 0.00 0.00 75 1011.2
20260830090610 25 204 12.9 16.1 0.00 0.00 0.00 74 1011.1
20260830090105 25 196 8.0 17.7 0.00 0.00 0.00 75 1011.2
20260830085604 25 206 11.3 16.1 0.00 0.00 0.00 75 1011.3
20260830085100 25 193 11.3 17.7 0.00 0.00 0.00 74 1011.1
20260830084556 25 213 12.9 17.7 0.00 0.00 0.00 75 1011.2
20260830084056 25 222 11.3 16.1 0.00 0.00 0.00 75 1011.3
20260830083551 25 194 12.9 20.9 0.00 0.00 0.00 74 1011.2
20260830083051 25 175 12.9 20.9 0.00 0.00 0.00 74 1011.1
20260830082546 25 220 16.1 20.9 0.00 0.00 0.00 73 1011.2
20260830082042 25 187 12.9 17.7 0.00 0.00 0.00 74 1011.1
20260830081537 25 197 9.7 20.9 0.00 0.00 0.00 75 1011.2
20260830081036 25 215 8.0 14.5 0.00 0.00 0.00 75 1011.2
20260830080531 25 178 8.0 14.5 0.00 0.00 0.00 76 1011.2
20260830080026 25 219 14.5 17.7 0.00 0.00 0.00 75 1010.9
20260830075521 25 186 12.9 24.1 0.00 0.00 0.00 75 1010.9
20260830075021 25 195 9.7 12.9 0.00 0.00 0.00 76 1011.0
20260830074518 25 222 11.3 17.7 0.00 0.00 0.00 76 1010.9
20260830074013 25 178 11.3 17.7 0.00 0.00 0.00 75 1011.1
20260830073509 25 153 6.4 16.1 0.00 0.00 0.00 76 1011.1
20260830073004 25 204 9.7 27.4 0.00 0.00 0.00 75 1011.0
20260830072459 25 199 11.3 16.1 0.00 0.00 0.00 75 1011.1
20260830071954 25 212 11.3 16.1 0.00 0.00 0.00 75 1011.1
20260830071450 25 205 11.3 14.5 0.00 0.00 0.00 76 1011.0
20260830070947 25 206 11.3 14.5 0.00 0.00 0.00 75 1011.1
20260830070442 25 199 11.3 16.1 0.00 0.00 0.00 75 1011.1
20260830065941 25 198 16.1 20.9 0.00 0.00 0.00 74 1011.1
20260830065436 25 156 6.4 12.9 0.00 0.00 0.00 76 1011.3
20260830064933 25 190 11.3 16.1 0.00 0.00 0.00 75 1011.3
20260830064430 25 181 9.7 11.3 0.00 0.00 0.00 75 1011.2
20260830063929 25 201 9.7 12.9 0.00 0.00 0.00 76 1011.3
20260830063424 25 170 11.3 12.9 0.00 0.00 0.00 76 1011.2
20260830062923 25 220 9.7 14.5 0.00 0.00 0.00 76 1011.4
20260830062422 25 227 9.7 14.5 0.00 0.00 0.00 75 1011.3
20260830061917 25 202 11.3 16.1 0.00 0.00 0.00 76 1011.3
20260830061417 25 239 8.0 16.1 0.00 0.00 0.00 77 1011.4
20260830060914 25 192 8.0 12.9 0.00 0.00 0.00 76 1011.3
20260830060411 25 214 9.7 16.1 0.00 0.00 0.00 76 1011.5
20260830055905 25 225 8.0 14.5 0.00 0.00 0.00 76 1011.4
20260830055401 25 200 11.3 16.1 0.00 0.00 0.00 76 1011.6
20260830054856 25 183 6.4 9.7 0.00 0.00 0.00 77 1011.3
20260830054352 25 201 8.0 16.1 0.00 0.00 0.00 77 1011.5
20260830053848 25 203 6.4 14.5 0.00 0.00 0.00 76 1011.5
20260830053343 25 180 9.7 14.5 0.00 0.00 0.00 76 1011.3
20260830052842 25 191 8.0 16.1 0.00 0.00 0.00 76 1011.4
20260830052338 25 206 4.8 9.7 0.00 0.00 0.00 76 1011.4
20260830051833 26 178 9.7 16.1 0.00 0.00 0.00 76 1011.3
20260830051328 26 192 8.0 12.9 0.00 0.00 0.00 76 1011.5
20260830050827 26 177 8.0 11.3 0.00 0.00 0.00 75 1011.3
20260830050323 26 183 9.7 11.3 0.00 0.00 0.00 76 1011.4
20260830045820 26 195 9.7 12.9 0.00 0.18 0.18 76 1011.4
20260830045316 26 201 11.3 14.5 0.00 0.18 0.18 75 1011.4
20260830044815 26 208 8.0 14.5 0.00 0.18 0.18 76 1011.4
20260830044310 26 210 9.7 16.1 0.00 0.18 0.18 75 1011.4
20260830043805 26 234 9.7 16.1 0.00 0.18 0.18 75 1011.1
20260830043300 26 202 9.7 11.3 0.00 0.18 0.18 76 1011.4
20260830042757 26 197 9.7 20.9 0.00 0.18 0.18 75 1011.1
20260830042252 26 160 11.3 20.9 0.00 0.18 0.18 75 1011.2
20260830041751 26 166 11.3 14.5 0.00 0.18 0.18 76 1011.2
20260830041245 26 189 9.7 14.5 0.00 0.18 0.18 76 1011.2
20260830040740 26 170 9.7 12.9 0.00 0.18 0.18 77 1011.3
20260830040231 26 154 12.9 17.7 0.00 0.18 0.18 76 1011.3
20260830035728 26 228 11.3 12.9 0.00 0.18 0.18 76 1011.5
20260830035223 26 167 12.9 17.7 0.00 0.18 0.18 77 1011.3
20260830034718 26 200 9.7 20.9 0.00 0.18 0.18 77 1011.4
20260830034213 26 174 9.7 17.7 0.00 0.18 0.18 77 1011.6